TimeEDT,TemperatureF,Dew PointF,Humidity,Sea Level PressureIn,VisibilityMPH,Wind Direction,Wind SpeedMPH,Gust SpeedMPH,PrecipitationIn,Events,Conditions,WindDirDegrees,DateUTC
12:52 AM,42.1,39.9,92,29.89,7.0,North,4.6,-,N/A,,Overcast,360,2013-03-24 04:52:00
1:52 AM,43.0,39.9,89,29.91,7.0,West,3.5,-,N/A,,Overcast,260,2013-03-24 05:52:00
2:52 AM,43.0,41.0,93,29.91,6.0,North,5.8,-,0.01,Rain,Light Rain,10,2013-03-24 06:52:00
3:52 AM,43.0,42.1,97,29.87,4.0,North,3.5,-,0.04,Rain,Light Rain,360,2013-03-24 07:52:00
4:52 AM,44.1,42.1,93,29.82,3.0,NNE,6.9,-,0.06,Rain,Light Rain,30,2013-03-24 08:52:00
5:52 AM,43.0,42.1,97,29.80,3.0,NNE,9.2,-,0.15,Rain,Heavy Rain,30,2013-03-24 09:52:00
6:43 AM,42.8,39.2,87,29.77,5.0,NE,10.4,-,0.09,Rain,Light Rain,40,2013-03-24 10:43:00
6:52 AM,42.1,39.9,92,29.77,4.0,NE,8.1,-,0.10,Rain,Rain,50,2013-03-24 10:52:00
7:08 AM,42.8,39.2,87,29.76,6.0,ENE,8.1,-,0.00,Rain,Light Rain,60,2013-03-24 11:08:00
7:52 AM,42.1,39.9,92,29.71,6.0,East,9.2,21.9,0.00,,Overcast,80,2013-03-24 11:52:00
8:52 AM,42.1,39.0,89,29.76,3.0,North,10.4,-,0.01,Rain,Light Rain,360,2013-03-24 12:52:00
9:07 AM,41.0,39.2,93,29.78,2.0,North,13.8,-,0.03,Rain,Rain,350,2013-03-24 13:07:00
9:31 AM,41.0,39.2,93,29.77,1.5,North,12.7,-,0.10,Rain,Heavy Rain,10,2013-03-24 13:31:00
9:38 AM,41.0,39.2,93,29.76,1.8,NNE,13.8,-,0.15,Rain,Rain,20,2013-03-24 13:38:00
9:43 AM,41.0,39.2,93,29.73,2.0,NE,15.0,-,0.15,Rain,Light Rain,40,2013-03-24 13:43:00
9:48 AM,42.8,39.2,87,29.72,2.0,NNE,16.1,-,0.16,Rain,Light Rain,30,2013-03-24 13:48:00
9:52 AM,42.1,39.9,92,29.73,2.0,NE,11.5,20.7,0.16,Rain,Light Rain,40,2013-03-24 13:52:00
10:43 AM,42.8,39.2,87,29.70,2.0,NE,13.8,18.4,0.00,,Overcast,40,2013-03-24 14:43:00
10:52 AM,42.1,39.0,89,29.69,2.0,NE,13.8,20.7,0.00,Rain,Light Rain,40,2013-03-24 14:52:00
11:43 AM,41.0,39.2,93,29.67,1.5,NE,16.1,-,0.05,Rain,Rain,40,2013-03-24 15:43:00
11:52 AM,41.0,39.0,93,29.68,1.5,NE,15.0,23.0,0.08,Rain,Heavy Rain,40,2013-03-24 15:52:00
12:09 PM,41.0,39.2,93,29.65,2.0,NNE,16.1,23.0,0.03,Rain,Light Rain,30,2013-03-24 16:09:00
12:52 PM,41.0,39.2,93,29.65,1.5,NE,11.5,23.0,N/A,Rain,Rain,40,2013-03-24 16:52:00
1:13 PM,41.0,39.2,93,29.66,2.0,NNE,12.7,-,0.04,Rain,Light Rain,20,2013-03-24 17:13:00
1:29 PM,41.0,39.2,93,29.65,2.0,NNE,10.4,-,0.06,Rain,Light Rain,20,2013-03-24 17:29:00
1:52 PM,41.0,39.0,93,29.66,2.0,NNE,10.4,-,0.06,Rain,Light Rain,20,2013-03-24 17:52:00
2:30 PM,41.0,39.2,93,29.64,2.0,NNE,11.5,-,0.02,Rain,Light Rain,20,2013-03-24 18:30:00
2:52 PM,41.0,39.0,93,29.61,6.0,NNE,12.7,-,0.02,,Overcast,30,2013-03-24 18:52:00
3:40 PM,41.0,37.4,87,29.63,10.0,North,10.4,-,N/A,,Overcast,10,2013-03-24 19:40:00
3:52 PM,41.0,37.9,89,29.62,10.0,North,11.5,-,N/A,,Overcast,360,2013-03-24 19:52:00
4:52 PM,39.9,37.0,89,29.58,10.0,NNE,17.3,21.9,N/A,,Overcast,20,2013-03-24 20:52:00
5:52 PM,39.9,37.0,89,29.59,10.0,NE,4.6,-,N/A,,Overcast,40,2013-03-24 21:52:00
6:52 PM,41.0,37.0,86,29.61,10.0,NE,5.8,-,N/A,,Overcast,50,2013-03-24 22:52:00
7:52 PM,39.9,37.0,89,29.60,10.0,NE,6.9,-,N/A,,Overcast,40,2013-03-24 23:52:00
8:28 PM,39.2,37.4,93,29.64,5.0,Calm,Calm,-,N/A,,Overcast,0,2013-03-25 00:28:00
8:52 PM,39.0,37.9,96,29.60,2.5,ENE,8.1,-,0.00,Rain,Light Rain,70,2013-03-25 00:52:00
9:12 PM,39.2,37.4,93,29.61,5.0,East,4.6,-,0.00,,Light Drizzle,80,2013-03-25 01:12:00
9:49 PM,39.2,37.4,93,29.61,8.0,East,5.8,-,0.00,,Overcast,100,2013-03-25 01:49:00
9:52 PM,39.0,37.0,93,29.62,8.0,ESE,6.9,-,0.00,,Overcast,110,2013-03-25 01:52:00
10:52 PM,39.0,36.0,89,29.60,8.0,East,5.8,-,0.01,,Light Drizzle,90,2013-03-25 02:52:00
10:59 PM,39.2,37.4,93,29.59,10.0,East,4.6,-,0.00,,Light Drizzle,100,2013-03-25 02:59:00
11:52 PM,39.0,37.0,93,29.61,10.0,Calm,Calm,-,0.00,,Light Drizzle,0,2013-03-25 03:52:00